Regional Weather Roundup
Issued by NWS

Home | Current Version | Previous Version | Text Only | Print | Product List | Glossary Off
Versions: 1 2 3 4 5 6 7 8 9 10 11 12 13 14 15 16 17 18 19 20 21 22 23 24 25 26 27

000
ASUS45 KBOU 010910
RWRCO

WEATHER ROUNDUP FOR COLORADO
NATIONAL WEATHER SERVICE DENVER/BOULDER CO
300 AM MDT SAT OCT 01 2016

NOTE: "FAIR" INDICATES FEW OR NO CLOUDS BELOW 12000 FEET WITH NO
SIGNIFICANT WEATHER AND/OR OBSTRUCTIONS TO VISIBILITY.

COZ001>005-013-030-031-011000-
...NORTHWEST COLORADO...

CITY           SKY/WX    TMP DP  RH WIND       PRES   REMARKS
CRAIG          FAIR      42  39  89 CALM      30.26F
HAYDEN         FAIR      45  37  76 E9        30.27F
MEEKER         FAIR      43  40  89 CALM      30.26F
MOUNT WERNER   NOT AVBL
STEAMBOAT SPGS FAIR      41  40  96 CALM      30.29F
WALDEN           N/A     36  32  87 SE5       30.35F
$$

COZ006>008-011-011000-
...WEST CENTRAL VALLEYS...

CITY           SKY/WX    TMP DP  RH WIND       PRES   REMARKS
GRAND JUNCTION FAIR      53  48  83 E8        30.18F
MONTROSE       FAIR      48  42  80 SE10      30.26S
EAGLE          FAIR      43  39  87 NE3       30.32S
RIFLE          FAIR      48  45  89 CALM      30.24F
DELTA          FAIR      51  45  79 CALM      30.23S
NUCLA          FAIR      46  43  87 SE3       30.29S
$$

COZ017>023-064>068-011000-
...SOUTHWEST COLORADO...

CITY           SKY/WX    TMP DP  RH WIND       PRES   REMARKS
DURANGO        FAIR      43  38  82 N5        30.28S
CORTEZ         FAIR      44  41  89 E3        30.25S
PAGOSA SPRINGS FAIR      40  38  93 CALM      30.34S
TELLURIDE      FAIR      40  38  91 CALM      30.41S
WOLF CREEK PAS FAIR      34  34 100 MISG      30.55F
$$

COZ009-010-012-014-032>034-037-058>063-011000-
...CENTRAL COLORADO...

CITY           SKY/WX    TMP DP  RH WIND       PRES   REMARKS
ASPEN          FAIR      42  38  85 S8        30.32F
BUENA VISTA    FAIR      42  39  89 W5        30.34F
COPPER MTN     FAIR      41  34  75 CALM      30.53F
BERTHOUD PASS  FAIR      32  21  64 N12G18    30.55S WCI  23
COTTONWOOD PAS FAIR      46  36  66 SW7       30.42F
GUNNISON       FAIR      39  36  87 CALM      30.36S
KREMMLING      FOG       34  32  93 CALM      30.36S VSB 1
LEADVILLE      FAIR      34  31  88 NE3       30.42F
MONARCH PASS   FAIR      36  36 100 W6        30.62F
SALIDA         FAIR      47  43  85 CALM      30.40S
SUNLIGHT       FAIR      45  36  70 CALM      30.50S
WILKERSON PASS FAIR      39  34  81 W7        30.51F
$$

COZ069>075-011000-
...SAN LUIS VALLEY/SANGRE DE CRISTO MOUNTAINS...

CITY           SKY/WX    TMP DP  RH WIND       PRES   REMARKS
ALAMOSA        FAIR      41  40  96 W5        30.31F
LA VETA PASS   FAIR      45  36  70 MISG      30.42F
SAGUACHE       FAIR      41  36  81 N10       30.33F
$$

COZ035-036-038>040-011000-
...NORTHERN COLORADO FRONT RANGE...

CITY           SKY/WX    TMP DP  RH WIND       PRES   REMARKS
DENVER INTL AP FAIR      55  45  68 SW13      30.16S
DMNS CITY PARK   N/A     53  46  75 S5        30.17S
AURORA         PTCLDY    52  45  78 S6        30.18S
FRONT RANGE AP FAIR      55  45  67 SW8       30.17F
ERIE MUNI ARPT FAIR      47  43  86 CALM      30.15F
BOULDER MUN AP FAIR      52  45  76 CALM      30.15F
CENTENNIAL     FAIR      50  43  77 W7        30.18F
BROOMFIELD     FAIR      55  39  54 CALM      30.18F
FORT COLLINS   FAIR      52  46  82 N3        30.15F
LONGMONT       FAIR      50  44  81 CALM      30.17S
$$

COZ041-046-047-076>085-087-088-011000-
...PIKES PEAK/PALMER DIVIDE AND SOUTHERN FOOTHILLS...

CITY           SKY/WX    TMP DP  RH WIND       PRES   REMARKS
COLO. SPRINGS  MOCLDY    56  46  69 NW7       30.22F
A. F. ACADEMY  FAIR      47  44  88 N7        30.22F
SCHRIEVER AFB  NOT AVBL
ELLICOTT       NOT AVBL
FALCON         CLOUDY    51  42  70 SW8       30.24F
FORT CARSON    NOT AVBL
LIMON          FAIR      45  39  79 CALM      30.17F
MONUMENT HILL  FAIR      45  41  87 W9        30.26F
TRINIDAD       FAIR      53  47  79 W13       30.19F
$$

COZ042>045-048>051-090-091-011000-
...NORTHEAST COLORADO...

CITY           SKY/WX    TMP DP  RH WIND       PRES   REMARKS
GREELEY ARPT   FAIR     N/A N/A N/A N8        30.13F
AKRON          FAIR      52  44  74 S8        30.13F
BURLINGTON     FAIR      49  43  80 S8        30.14F
WRAY           FAIR      52  43  71 CALM      30.12F
STERLING       FAIR      50  45  81 SW5       30.10F
HOLYOKE        FAIR      48  43  81 S3        30.13F
FORT MORGAN    FAIR      47  41  79 CALM      30.13S
$$

COZ086-089-092>099-011000-
...SOUTHEAST COLORADO...

CITY           SKY/WX    TMP DP  RH WIND       PRES   REMARKS
PUEBLO         FAIR      59  49  69 W9        30.13F
LA JUNTA       FAIR      56  46  69 N6        30.11F
LAMAR          FAIR      52  46  80 E7        30.07F
SPRINGFIELD      N/A     50  46  86 E10       30.08F
$$




USA.gov is the U.S. government's official web portal to all federal, state and local government web resources and services.